Location: Newark
(41.5333°N, 14.5500°E)
Time: 00:57:35
(UTC+00:00)

Envisat - Pass Details

Date: 29 January 2020
Orbit: 764 x 766 km, 98.1° (Epoch: 20 February)

Event Time Altitude Azimuth Distance (km) Brightness Sun altitude
Rises 18:18:55 0° 216° (SW) 3,220 6.8 -23.6°
Reaches altitude 10° 18:22:35 10° 244° (WSW) 2,300 6.4 -24.3°
Maximum altitude 18:24:51 13° 271° (W) 2,106 6.3 -24.7°
Drops below altitude 10° 18:27:06 10° 298° (WNW) 2,308 6.3 -25.1°
Sets 18:30:50 0° 326° (NW) 3,240 6.7 -25.8°
